Wind_Speed
1 1 2 2 3 3 3 3 4 4 4 5 5 6 6 7 7 7 7 7 6 6 6 6 5 5 5 5 5 5 5 5 5 6 5 5 6 6 7 8 9 9 9
2 1 1 2 2 3 2 2 2 3 3 4 5 6 6 7 7 8 8 7 7 6 6 6 5 5 5 5 4 4 4 4 5 5 5 5 5 5 6 7 8 9 9
3 2 2 3 3 3 2 1 0 2 3 4 5 6 6 7 7 8 8 8 7 7 6 6 6 5 5 4 4 3 3 3 4 4 4 4 4 5 5 6 7 8 8
3 3 4 4 3 3 3 2 2 2 3 5 5 6 6 7 8 8 8 8 8 7 7 7 6 6 5 5 4 3 2 2 2 2 3 3 3 4 4 5 7 7 7
4 5 5 5 4 4 4 3 3 3 4 5 6 6 7 7 8 8 8 8 8 8 8 8 7 6 6 5 5 4 3 2 2 1 1 2 2 3 3 5 6 6 7
5 5 6 6 5 4 4 4 4 4 4 5 6 6 7 8 8 9 9 9 9 9 9 9 9 8 7 6 6 5 4 4 3 2 1 1 2 2 3 4 4 6 6
6 6 6 6 5 5 4 3 4 4 5 5 6 7 7 8 9 9 9 10 10 10 11 11 10 10 9 8 7 6 5 5 4 4 3 2 2 3 4 4 4 5 6
7 6 6 6 6 5 4 4 5 5 6 7 8 8 9 10 10 10 11 12 12 12 12 12 12 12 11 9 8 7 7 6 6 6 5 5 5 4 4 5 5 5 6
8 7 6 6 6 5 4 4 5 6 7 8 10 11 11 12 12 13 14 14 14 14 14 14 14 13 13 11 10 9 8 8 7 7 7 7 7 7 6 6 7 7 7
8 8 7 6 6 6 6 6 7 8 9 11 12 12 13 14 14 15 16 17 16 16 16 16 16 16 15 14 13 11 10 10 9 9 9 9 9 9 9 9 8 8 8
9 8 7 6 6 7 8 8 8 10 12 13 13 14 15 15 15 16 17 18 18 17 17 17 18 17 17 16 16 14 12 12 12 12 12 12 11 11 12 11 11 10 10
10 8 8 6 7 7 8 9 10 12 13 14 15 15 16 16 16 17 17 16 17 17 17 17 17 18 18 18 18 16 14 14 14 14 14 15 15 14 14 14 13 13 12
11 9 8 7 7 8 9 10 11 12 14 15 15 14 14 14 16 16 15 15 15 15 16 16 16 16 17 18 19 18 17 16 16 16 16 17 17 17 16 16 16 15 14
11 9 7 7 7 8 9 10 11 12 13 14 13 13 13 13 13 14 13 13 13 14 14 15 14 15 16 17 18 18 18 18 17 17 17 18 18 18 18 18 18 17 16
10 10 8 8 8 9 9 10 11 12 13 12 12 12 12 12 12 12 12 12 11 12 13 14 15 15 16 16 17 18 19 18 18 18 18 17 18 19 19 18 19 19 19
9 9 8 7 7 8 10 10 10 10 10 9 10 11 10 10 10 10 11 11 11 12 13 14 15 16 16 16 17 18 19 19 19 19 19 18 18 19 20 19 20 20 21
7 7 6 6 7 8 9 9 9 9 8 9 9 10 10 10 10 11 12 12 12 13 14 15 16 17 17 18 18 18 20 20 20 20 20 19 20 20 20 21 22 22 23
7 6 5 5 6 8 8 8 9 9 9 9 9 10 10 11 11 12 13 14 14 15 15 16 17 18 19 19 19 19 20 21 22 22 22 21 22 21 21 21 22 24 25
7 5 4 4 5 6 7 7 8 8 9 9 10 11 11 12 12 13 14 14 16 16 17 17 18 18 19 20 20 21 21 22 23 23 23 23 23 23 24 24 24 24 26
6 4 3 3 5 5 6 6 7 8 9 10 11 11 12 13 14 15 15 16 17 17 18 18 18 18 19 19 20 21 22 23 23 24 24 25 25 25 26 26 26 25 26
5 4 3 4 4 5 6 7 8 8 9 10 10 11 12 13 14 15 16 17 17 18 18 18 18 19 19 19 20 21 22 23 24 24 25 25 26 27 27 28 28 28 28
4 3 3 4 4 6 6 7 8 8 9 9 10 11 12 13 14 15 15 16 17 17 18 18 19 19 20 20 20 21 22 23 24 24 25 26 27 27 28 29 29 30 30
2 2 3 4 4 5 6 7 8 8 8 9 10 11 12 13 14 15 16 17 17 18 18 18 18 19 20 21 21 21 21 22 24 24 25 26 27 28 28 30 30 31 32
0 0 2 3 4 4 5 6 7 8 9 9 10 11 12 13 15 16 16 17 18 18 18 18 18 19 19 20 21 21 22 22 24 25 25 26 27 28 29 30 31 31 32
0 1 1 2 3 4 5 6 7 8 9 9 10 11 12 13 15 16 17 17 18 18 19 19 20 20 20 21 22 22 23 24 24 25 26 27 27 28 29 30 31 32 33
0 1 2 3 4 4 5 6 7 8 9 10 11 12 13 15 16 17 17 18 19 20 20 21 21 22 22 22 23 23 24 25 25 26 27 28 29 29 30 30 31 33 34
Wind_Direction
217 144 122 122 113 99 84 61 40 23 13 9 7 7 4 0 358 357 356 358 0 3 6 7 9 15 23 26 32 40 47 53 58 65 72 84 92 99 105 108 106 106 107
197 183 157 151 145 129 111 81 40 14 0 353 351 350 350 350 349 346 345 344 344 346 350 353 355 358 6 14 20 29 40 49 55 64 75 85 94 102 110 114 112 110 109
190 178 178 173 171 164 162 160 337 337 339 338 336 334 334 335 336 337 337 335 333 332 335 339 342 345 349 355 5 13 27 40 48 59 72 81 96 104 114 121 121 118 114
196 188 195 195 195 197 202 218 260 288 309 320 323 321 320 321 323 326 327 326 324 322 322 325 327 333 335 338 344 349 1 17 33 41 57 75 99 108 115 122 127 124 121
210 207 205 206 211 217 223 237 257 277 296 309 313 313 312 312 313 315 316 315 315 313 312 313 315 320 324 324 325 324 315 321 335 348 52 86 107 124 129 134 134 130 129
216 214 213 213 219 224 231 241 253 270 286 299 306 307 309 309 308 308 307 307 308 307 305 303 303 305 308 309 310 307 296 290 292 302 286 142 144 155 155 152 148 142 138
217 216 219 222 229 233 236 249 261 273 281 289 297 302 304 305 304 303 303 304 303 301 300 298 296 296 297 296 296 299 291 282 273 267 258 234 210 193 186 176 169 161 155
216 221 230 233 236 240 247 260 274 282 289 292 293 295 296 297 298 297 297 297 297 295 294 293 292 291 290 289 285 284 280 277 271 261 249 237 226 215 206 198 191 181 173
216 216 226 230 237 244 256 274 286 289 291 294 294 292 294 294 295 296 294 292 292 290 288 286 286 287 287 285 283 278 271 267 266 261 249 240 232 226 219 212 206 198 190
213 209 216 221 236 250 264 278 286 290 293 295 297 294 294 295 296 295 293 287 284 286 284 282 281 283 282 279 278 277 271 264 260 257 251 244 238 233 227 220 215 210 203
211 211 215 224 244 256 266 275 284 290 294 295 294 295 294 295 295 295 292 286 280 281 281 280 277 277 278 276 274 275 272 264 259 256 253 247 241 235 229 224 219 217 213
209 215 220 232 250 260 269 275 281 289 294 294 292 294 292 291 293 294 294 287 282 280 279 279 276 272 272 272 272 272 270 265 260 259 255 250 243 237 231 227 224 220 219
203 207 213 241 260 269 270 273 281 291 295 293 293 295 295 296 294 295 295 290 284 282 281 280 277 276 275 272 271 270 268 267 262 258 255 252 247 241 235 230 227 223 221
208 209 222 245 261 272 276 278 284 291 293 295 292 293 296 298 296 295 294 292 289 286 282 277 277 279 279 276 271 270 269 266 262 258 257 253 250 245 237 234 229 224 224
212 213 219 239 254 266 271 278 284 288 288 290 290 292 295 298 298 294 293 292 289 290 286 282 280 279 278 278 274 271 269 268 264 259 256 257 252 245 241 240 230 227 227
213 214 221 242 264 275 275 276 281 286 285 284 286 291 297 301 299 299 299 297 293 291 289 284 280 277 274 276 275 272 269 266 263 260 255 256 254 250 245 241 236 233 232
217 222 237 257 274 283 286 289 286 288 287 285 289 292 299 302 304 303 302 301 297 294 291 285 279 276 276 276 274 272 267 266 264 262 258 257 255 252 247 242 238 237 235
220 228 242 261 282 291 297 299 295 294 294 296 295 294 298 300 301 301 301 299 298 295 292 288 284 279 277 276 274 273 269 266 264 262 260 257 253 252 250 245 242 241 238
216 222 236 269 286 293 300 303 303 302 298 299 299 297 299 299 298 298 299 297 296 296 294 291 287 283 279 276 274 272 270 267 265 263 260 257 254 252 249 246 246 244 241
204 211 238 274 290 297 303 308 309 305 301 301 300 301 302 300 299 299 299 299 299 297 293 290 286 283 279 276 273 272 271 268 266 262 259 257 255 251 249 247 247 247 244
210 227 235 263 278 293 303 307 307 304 303 304 303 304 304 302 302 302 303 303 301 299 297 293 289 286 282 279 275 271 269 268 266 263 260 258 257 253 249 248 247 247 246
210 232 248 267 285 295 301 307 309 308 308 308 309 307 306 307 308 308 308 306 305 303 300 295 291 288 286 283 278 275 272 269 266 264 261 260 258 255 251 249 247 246 247
225 250 268 281 293 302 311 315 314 315 318 318 317 315 314 315 314 313 312 311 309 307 303 299 295 292 288 285 281 277 274 271 268 265 262 260 258 256 253 250 248 247 247
207 302 298 304 311 316 320 322 322 323 324 324 323 322 321 321 321 318 316 313 311 309 306 303 300 296 292 289 284 279 276 273 271 269 266 262 259 256 253 251 249 247 246
117 7 341 335 330 330 329 329 330 331 333 332 330 329 328 328 325 322 320 318 316 314 311 307 304 300 297 292 288 284 279 276 272 270 268 265 261 257 254 251 249 247 246
60 353 341 335 340 340 336 333 334 336 337 335 334 332 331 330 328 326 325 323 320 317 314 310 306 303 300 296 292 287 283 279 275 271 268 266 263 260 257 254 250 247 247
Height
5912 5911 5911 5911 5912 5912 5913 5913 5913 5913 5913 5912 5912 5912 5911 5910 5910 5909 5908 5907 5907 5906 5905 5904 5904 5903 5903 5902 5902 5902 5902 5901 5901 5901 5900 5900 5900 5900 5900 5900 5900 5900 5900
5911 5911 5911 5911 5912 5912 5913 5913 5913 5913 5913 5912 5912 5912 5911 5911 5910 5909 5908 5908 5907 5906 5905 5905 5904 5904 5903 5903 5903 5902 5902 5902 5902 5902 5901 5901 5901 5901 5901 5901 5901 5901 5901
5911 5911 5911 5911 5912 5912 5912 5913 5913 5913 5913 5912 5912 5912 5911 5910 5910 5909 5908 5907 5907 5906 5905 5905 5904 5904 5903 5903 5903 5902 5902 5902 5902 5902 5902 5902 5902 5902 5902 5902 5902 5902 5903
5910 5910 5910 5911 5911 5912 5912 5912 5912 5912 5912 5912 5911 5911 5910 5910 5909 5908 5908 5907 5906 5906 5905 5905 5904 5904 5903 5903 5902 5902 5902 5902 5902 5902 5902 5902 5902 5902 5903 5903 5903 5903 5904
5909 5909 5910 5910 5910 5911 5911 5911 5912 5912 5911 5911 5911 5910 5909 5909 5908 5908 5907 5907 5906 5905 5905 5904 5904 5903 5903 5902 5902 5902 5902 5902 5902 5902 5902 5902 5903 5903 5903 5904 5904 5904 5905
5908 5908 5908 5909 5909 5909 5910 5910 5910 5910 5910 5910 5909 5909 5908 5908 5907 5906 5906 5905 5905 5904 5904 5903 5903 5902 5902 5901 5901 5901 5901 5901 5901 5902 5902 5902 5903 5903 5904 5904 5905 5905 5905
5906 5907 5907 5907 5908 5908 5908 5909 5909 5909 5909 5908 5908 5907 5907 5906 5906 5905 5904 5904 5903 5903 5902 5902 5901 5901 5900 5900 5900 5900 5900 5900 5901 5901 5901 5902 5902 5903 5903 5904 5905 5905 5906
5904 5905 5906 5906 5907 5907 5907 5907 5907 5907 5907 5907 5906 5906 5905 5905 5904 5903 5903 5902 5901 5901 5900 5900 5899 5899 5899 5899 5899 5899 5899 5899 5900 5900 5900 5901 5901 5902 5903 5904 5905 5905 5906
5901 5902 5903 5904 5905 5905 5905 5905 5905 5905 5905 5904 5904 5903 5903 5903 5902 5901 5901 5900 5899 5898 5898 5897 5897 5897 5897 5897 5897 5897 5897 5897 5898 5898 5899 5899 5900 5901 5902 5903 5904 5905 5905
5898 5900 5901 5902 5903 5903 5903 5903 5903 5903 5902 5902 5901 5901 5900 5900 5899 5898 5897 5896 5896 5895 5895 5894 5894 5894 5894 5894 5894 5894 5895 5895 5896 5896 5897 5897 5898 5899 5900 5901 5903 5903 5904
5896 5897 5899 5900 5900 5900 5900 5901 5901 5900 5900 5899 5899 5898 5897 5897 5896 5895 5893 5892 5892 5892 5891 5891 5890 5890 5891 5891 5891 5892 5893 5893 5893 5894 5894 5895 5896 5897 5898 5899 5900 5902 5903
5894 5896 5897 5897 5898 5898 5898 5898 5898 5898 5897 5896 5895 5895 5894 5893 5892 5891 5890 5889 5888 5888 5888 5887 5887 5887 5887 5887 5888 5888 5889 5890 5890 5891 5891 5892 5892 5893 5895 5896 5898 5899 5901
5890 5892 5894 5895 5895 5895 5896 5895 5896 5895 5894 5893 5892 5892 5891 5890 5889 5888 5887 5885 5885 5885 5885 5884 5883 5883 5884 5884 5884 5885 5885 5886 5887 5887 5887 5888 5889 5890 5891 5893 5895 5896 5898
5887 5889 5891 5892 5893 5893 5893 5893 5893 5893 5892 5890 5889 5888 5888 5887 5886 5885 5884 5883 5882 5882 5881 5881 5880 5880 5881 5880 5880 5880 5881 5882 5882 5883 5883 5884 5885 5886 5887 5889 5891 5893 5895
5884 5887 5888 5890 5890 5890 5890 5891 5890 5890 5889 5887 5886 5886 5885 5884 5883 5882 5881 5880 5879 5879 5878 5878 5877 5877 5877 5877 5876 5877 5877 5877 5878 5878 5879 5880 5881 5882 5884 5885 5887 5889 5891
5881 5883 5885 5886 5887 5887 5887 5888 5888 5887 5886 5885 5884 5883 5882 5881 5880 5879 5879 5877 5877 5876 5876 5875 5874 5874 5874 5873 5873 5873 5873 5873 5873 5874 5875 5876 5877 5878 5879 5881 5883 5885 5887
5877 5879 5880 5882 5883 5883 5884 5884 5884 5883 5882 5882 5881 5880 5879 5878 5878 5877 5875 5875 5874 5873 5872 5871 5871 5870 5869 5869 5868 5868 5869 5869 5869 5870 5870 5871 5873 5874 5875 5876 5878 5880 5883
5875 5877 5878 5879 5880 5881 5881 5881 5881 5880 5879 5879 5878 5877 5876 5875 5875 5874 5872 5871 5870 5869 5868 5868 5867 5866 5865 5864 5864 5864 5864 5864 5864 5865 5865 5866 5868 5869 5870 5872 5873 5875 5877
5873 5875 5876 5877 5878 5879 5879 5879 5878 5877 5877 5876 5875 5874 5873 5872 5871 5870 5869 5868 5867 5865 5864 5863 5862 5861 5861 5860 5860 5859 5859 5859 5859 5859 5860 5861 5862 5864 5865 5866 5868 5870 5872
5871 5873 5874 5875 5876 5877 5877 5876 5876 5875 5874 5873 5872 5871 5870 5869 5868 5867 5865 5864 5863 5861 5860 5859 5858 5857 5856 5855 5855 5854 5854 5853 5853 5854 5854 5855 5856 5858 5859 5860 5862 5864 5866
5870 5871 5872 5873 5874 5874 5874 5874 5873 5873 5872 5871 5869 5868 5867 5866 5864 5863 5861 5860 5858 5857 5855 5854 5853 5852 5851 5850 5850 5849 5848 5848 5847 5847 5848 5849 5850 5851 5852 5854 5856 5858 5860
5869 5870 5871 5871 5872 5872 5872 5871 5871 5870 5869 5868 5867 5865 5864 5862 5861 5859 5857 5855 5854 5852 5850 5849 5847 5846 5845 5845 5844 5843 5843 5843 5842 5841 5841 5842 5843 5844 5845 5847 5849 5850 5852
5867 5867 5868 5869 5869 5869 5869 5869 5868 5868 5866 5865 5863 5862 5860 5859 5857 5855 5853 5851 5849 5848 5846 5844 5843 5841 5840 5839 5838 5838 5837 5836 5835 5835 5835 5835 5836 5837 5838 5839 5841 5843 5845
5866 5866 5867 5867 5867 5867 5867 5866 5866 5865 5863 5862 5861 5859 5857 5855 5853 5851 5849 5847 5845 5843 5841 5839 5838 5836 5834 5833 5832 5831 5831 5830 5829 5829 5828 5829 5829 5829 5831 5832 5833 5835 5837
5865 5865 5865 5865 5865 5865 5865 5864 5863 5862 5861 5859 5858 5857 5855 5852 5850 5848 5845 5843 5841 5839 5836 5834 5832 5830 5829 5827 5826 5825 5824 5823 5823 5822 5822 5821 5822 5822 5823 5824 5825 5827 5828
5864 5864 5864 5864 5864 5863 5863 5862 5861 5860 5858 5857 5855 5853 5851 5849 5847 5844 5842 5839 5837 5834 5832 5829 5827 5825 5823 5821 5819 5818 5817 5816 5815 5815 5814 5814 5814 5814 5815 5816 5817 5818 5819